Tracking 25710 objects as of 5-Jul-2022
HD Live streaming from Space Station
objects crossing your sky now

FENGYUN 1C DEB

Track FENGYUN 1C DEB now!
10-day predictions


NORAD ID: 30637
Int'l Code: 1999-025ANU
Perigee: 605.9 km
Apogee: 721.0 km
Inclination: 98.9 °
Period: 97.9 minutes
Semi major axis: 7034 km
RCS: 0.039 m2 (small)
Launch date: May 10, 1999
Source: People's Republic of China (PRC)
Launch site: Taiyaun Space Center, China (TSC)

Note: This is SATELLITE DEBRIS
aabbcc
Your satellite tracking list
Your tracking list is empty




NASA's NSSDC Master Catalog

Two Line Element Set (TLE):
1 30637U 99025ANU 22185.90864418  .00004788  00000-0  74185-3 0  9997
2 30637  98.9138 269.8157 0081760 194.3059 227.3846 14.71493852817282
Source of the keplerian elements: AFSPC